Location: Bucquoy
(50.1391°N, 2.7097°E)
Time: 09:05:56
(UTC+00:00)

Resurs 1-4 Rocket - Pass Details

Date: 06 May 2021
Orbit: 800 x 814 km, 98.6° (Epoch: 21 June)

Event Time Altitude Azimuth Distance (km) Brightness Sun altitude
Rises 01:22:45 0° 16° (NNE) 3,323 6.8 -20.0°
Reaches altitude 10° 01:25:07 10° 19° (NNE) 2,388 5.8 -19.8°
Maximum altitude 01:30:23 71° 103° (ESE) 849 2.2 -19.4°
Enters shadow 01:32:47 33° 180° (S) 1,327 2.7 -19.3°
